map of LHR home
LHR - Airport
Location
City:  London, Middlesex, England, United Kingdom
Name:Heathrow Airport
ICAO:EGLL
IATA:LHR

Details
Type:Airport (Aerodrome, Airfield)
Use:Public/Civil, International (customs port of entry)
Latitude:5128'39"N (51.477500)
Longitude:027'41"W (-0.461388)
Elevation:83 ft (25 m)
Variation:0.46W (WMM2015 magnetic declination)
0.15 annual change
Runways:2
Longest:12802 × 164 ft (3902 × 50 m), paved

Time
Time Zone:UTC+0 (DST+1)
Local Time:

Weather
METAR:EGLL 220350Z AUTO 21005KT 9999 NCD 16/14 Q1018 NOSIG
TAF:EGLL 212254Z 2200/2306 23005KT 9999 SCT035 PROB30
TEMPO 2205/2209 6000 BKN008
TEMPO 2304/2306 7000 -RA BKN008

Related Locations
Nearby:
Farthest:CHT: 11869 mi / 19102 km
Waitangi [Tuuta], CIT, NZ

Find:

   beyond  
but within

Other Information
Maps:
NOTAMs:
Links:
Sources:

  
  • flag of United Kingdom
  • flag of England
  • flag of Middlesex
  

Airport Diagram

Airport diagram for LHR

Airport diagram PDF

Sectional Chart

Flight Planning
at skyvector.com

Satellite Image

Google Maps Satellite view

 

Copyright © 2004-2018 Karl L. Swartz. All rights reserved.
The Great Circle Mapper name and logo are trademarks of the Great Circle Mapper.
All other trademarks mentioned herein belong to their respective owners.
Please see credits for attibutions and further copyright information.

  Follow gcmap on Facebook Follow gcmap on Twitter Follow gcmap on Google+ GCmap on LinkedIn

hCard Microformat

Geo Microformat